Satellite: PO-34
Catalog number: 25520
Epoch time:      08170.38062753
Element set:    0025
Inclination:      028.4593 deg
RA of node:       170.7911 deg
Eccentricity:    0.0005254
Arg of perigee:   296.5203 deg
Mean anomaly:     063.4852 deg
Mean motion:   15.17201839 rev/day
Decay rate:       3.85e-06 rev/day^2
Epoch rev:           53334
Checksum:              287

Satellite: ISS
Catalog number: 25544
Epoch time:      08170.94347382
Element set:    0692
Inclination:      051.6427 deg
RA of node:       007.3198 deg
Eccentricity:    0.0005894
Arg of perigee:   350.2420 deg
Mean anomaly:     096.0875 deg
Mean motion:   15.77053772 rev/day
Decay rate:     1.7507e-04 rev/day^2
Epoch rev:           54880
Checksum:              319

Satellite: CO-58
Catalog number: 28895
Epoch time:      08171.72530725
Element set:      49
Inclination:      098.0992 deg
RA of node:       065.6678 deg
Eccentricity:    0.0018482
Arg of perigee:   045.0989 deg
Mean anomaly:     315.1728 deg
Mean motion:   14.59676968 rev/day
Decay rate:        9.5e-07 rev/day^2
Epoch rev:           14085
Checksum:              370

Satellite: NCUBE2
Catalog number: 28897
Epoch time:      08170.25018137
Element set:    0580
Inclination:      098.0981 deg
RA of node:       064.1579 deg
Eccentricity:    0.0018379
Arg of perigee:   049.2026 deg
Mean anomaly:     311.0764 deg
Mean motion:   14.59847182 rev/day
Decay rate:        7.9e-07 rev/day^2
Epoch rev:           13292
Checksum:              324

Satellite: FCAL
Catalog number: 29667
Epoch time:      08146.34060426
Element set:     979
Inclination:      051.6107 deg
RA of node:       065.3702 deg
Eccentricity:    0.0009039
Arg of perigee:   260.8350 deg
Mean anomaly:     099.5042 deg
Mean motion:   16.53464210 rev/day
Decay rate:  1.1864717e-01 rev/day^2
Epoch rev:            8291
Checksum:              307

Satellite: FALCON
Catalog number: 30776
Epoch time:      08170.96933700
Element set:    0336
Inclination:      035.4325 deg
RA of node:       142.6844 deg
Eccentricity:    0.0001414
Arg of perigee:   358.1828 deg
Mean anomaly:     001.8891 deg
Mean motion:   15.03005107 rev/day
Decay rate:       2.19e-06 rev/day^2
Epoch rev:           07041
Checksum:              266

Satellite: MAST
Catalog number: 31126
Epoch time:      08171.71953993
Element set:     355
Inclination:      098.0386 deg
RA of node:       236.0521 deg
Eccentricity:    0.0094125
Arg of perigee:   324.7707 deg
Mean anomaly:     034.7285 deg
Mean motion:   14.53428445 rev/day
Decay rate:       -6.6e-07 rev/day^2
Epoch rev:            6238
Checksum:              304

Satellite: CAPE1
Catalog number: 31130
Epoch time:      08170.15679680
Element set:    0339
Inclination:      098.0381 deg
RA of node:       233.5589 deg
Eccentricity:    0.0102422
Arg of perigee:   332.4923 deg
Mean anomaly:     027.0850 deg
Mean motion:   14.51968614 rev/day
Decay rate:       -8.2e-07 rev/day^2
Epoch rev:           06186
Checksum:              292

Satellite: CUTE1-7
Catalog number: 32785
Epoch time:      08170.33529666
Element set:    0080
Inclination:      097.9924 deg
RA of node:       230.2531 deg
Eccentricity:    0.0015655
Arg of perigee:   128.8795 deg
Mean anomaly:     231.3815 deg
Mean motion:   14.81367698 rev/day
Decay rate:       2.38e-06 rev/day^2
Epoch rev:           00757
Checksum:              333

Satellite: COMPASS
Catalog number: 32787
Epoch time:      08170.33359543
Element set:    0071
Inclination:      097.9885 deg
RA of node:       230.2243 deg
Eccentricity:    0.0016633
Arg of perigee:   130.7882 deg
Mean anomaly:     229.4774 deg
Mean motion:   14.81421798 rev/day
Decay rate:       3.29e-06 rev/day^2
Epoch rev:           00757
Checksum:              318

Satellite: AAUSAT2
Catalog number: 32788
Epoch time:      08171.81573088
Element set:      72
Inclination:      097.9885 deg
RA of node:       231.7096 deg
Eccentricity:    0.0016772
Arg of perigee:   127.7503 deg
Mean anomaly:     232.5207 deg
Mean motion:   14.81532498 rev/day
Decay rate:       4.22e-06 rev/day^2
Epoch rev:             779
Checksum:              324

Satellite: DO-64
Catalog number: 32789
Epoch time:      08170.94227896
Element set:    0081
Inclination:      097.9911 deg
RA of node:       230.8503 deg
Eccentricity:    0.0016683
Arg of perigee:   128.1667 deg
Mean anomaly:     232.1048 deg
Mean motion:   14.81410044 rev/day
Decay rate:       5.89e-06 rev/day^2
Epoch rev:           00766
Checksum:              321

Satellite: SEEDS
Catalog number: 32791
Epoch time:      08170.13573835
Element set:    0078
Inclination:      097.9930 deg
RA of node:       230.0371 deg
Eccentricity:    0.0016969
Arg of perigee:   129.0062 deg
Mean anomaly:     231.2665 deg
Mean motion:   14.81281556 rev/day
Decay rate:       4.28e-06 rev/day^2
Epoch rev:           00751
Checksum:              294

Satellite: CANX-2
Catalog number: 32797
Epoch time:      08169.11117159
Element set:    0033
Inclination:      097.9923 deg
RA of node:       229.0501 deg
Eccentricity:    0.0018051
Arg of perigee:   136.6067 deg
Mean anomaly:     223.6579 deg
Mean motion:   14.81732267 rev/day
Decay rate:      1.971e-05 rev/day^2
Epoch rev:           00607
Checksum:              303

